Weather History for KJEF - May, 2014

Change the Weather History Date:

Monday, May 26, 2014

  Actual Average Record
Temperature  
Mean Temperature 74 °F -  
Max Temperature 84 °F 78 °F 96 °F (2012)
Min Temperature 66 °F 54 °F 40 °F (1925)
Cooling Degree Days 9    
Growing Degree Days 24 (Base 50)    
Moisture  
Dew Point 66 °F    
Average Humidity 81    
Maximum Humidity 93    
Minimum Humidity 56    
Precipitation  
Precipitation 0.94 in - - ()
Sea Level Pressure  
Sea Level Pressure 30.00 in    
Wind  
Wind Speed 6 mph (ESE)    
Max Wind Speed 25 mph    
Max Gust Speed 40 mph    
Visibility 8 miles    
Events Rain , Thunderstorm    
Averages and records for this station are not official NWS values.
T = Trace of Precipitation, MM = Missing Value Source: NWS Daily Summary

Daily Weather History Graph

Daily Weather History Graph

Search for Another Location

Airport or City:

Trip Planner

Search our weather history database for the weather conditions in past years. The results will help you decide how hot, cold, wet, or windy it might be!

Date:

Astronomy

May. 26, 2014 Rise Set
Actual Time 5:48 AM CDT 8:22 PM CDT
Civil Twilight 5:18 AM CDT 8:53 PM CDT
Nautical Twilight 4:39 AM CDT 9:32 PM CDT
Astronomical Twilight 3:57 AM CDT 10:14 PM CDT
Moon 4:29 AM CDT (5/26) 6:27 PM CDT (5/26)
Length of Visible Light 15h 35m
Length of Day
14h 33m
Waning Crescent, 5% of the Moon is Illuminated
May 26
Waning Crescent
May 28
New
Jun 5
First Quarter
Jun 12
Full
Jun 19
Last Quarter

Hourly Weather History & Observations

Time (CDT) Temp. Heat Index Dew Point Humidity Pressure Visibility Wind Dir Wind Speed Gust Speed Precip Events Conditions
12:53 AM 71.1 °F - 66.0 °F 84% 29.97 in 9.0 mi ESE 4.6 mph - N/A   Clear
1:53 AM 71.1 °F - 64.9 °F 81% 29.97 in 10.0 mi ESE 5.8 mph - N/A   Clear
2:53 AM 68.0 °F - 64.9 °F 90% 29.97 in 8.0 mi ESE 4.6 mph - N/A   Clear
3:53 AM 69.1 °F - 64.0 °F 84% 29.97 in 10.0 mi Calm Calm - N/A   Scattered Clouds
4:53 AM 68.0 °F - 64.0 °F 87% 29.98 in 10.0 mi ESE 3.5 mph - N/A   Clear
5:53 AM 66.0 °F - 64.0 °F 93% 29.99 in 9.0 mi ESE 3.5 mph - N/A   Clear
6:53 AM 66.0 °F - 64.0 °F 93% 30.01 in 6.0 mi ESE 3.5 mph - N/A   Clear
7:53 AM 69.1 °F - 64.9 °F 87% 30.01 in 9.0 mi ESE 4.6 mph - N/A   Overcast
8:53 AM 73.0 °F - 66.0 °F 79% 30.02 in 10.0 mi SSE 4.6 mph - N/A   Mostly Cloudy
9:53 AM 75.9 °F - 66.9 °F 74% 30.02 in 10.0 mi SSE 5.8 mph - N/A   Clear
10:53 AM 79.0 °F - 66.9 °F 66% 30.01 in 10.0 mi South 9.2 mph - N/A   Partly Cloudy
11:53 AM 82.0 °F 84.5 °F 66.9 °F 60% 30.00 in 10.0 mi SW 9.2 mph - N/A   Scattered Clouds
12:40 PM 82.9 °F 85.0 °F 66.0 °F 56% 30.02 in 10.0 mi SW 5.8 mph - N/A Thunderstorm Scattered Clouds
12:53 PM 82.0 °F 84.1 °F 66.0 °F 58% 29.98 in 10.0 mi Variable 6.9 mph 19.6 mph N/A Thunderstorm Scattered Clouds
1:42 PM 70.0 °F - 64.0 °F 81% 30.02 in - SW 6.9 mph - 0.08 in Thunderstorm Thunderstorm
1:53 PM 73.0 °F - 64.9 °F 76% 29.98 in 10.0 mi Calm Calm - 0.08 in Thunderstorm Unknown
2:27 PM 75.9 °F - 66.0 °F 71% 30.01 in 10.0 mi ESE 8.1 mph - N/A   Scattered Clouds
2:53 PM 77.0 °F - 66.0 °F 69% 29.96 in 10.0 mi East 5.8 mph - N/A   Scattered Clouds
3:51 PM 77.0 °F - 69.8 °F 78% 29.99 in 6.0 mi East 13.8 mph - 0.02 in Rain , Thunderstorm Thunderstorms and Rain
3:53 PM 75.9 °F - 69.1 °F 79% 29.96 in 6.0 mi East 15.0 mph - 0.02 in Rain , Thunderstorm Light Thunderstorms and Rain
4:12 PM 75.0 °F - 70.0 °F 84% 29.98 in 10.0 mi SE 12.7 mph - 0.00 in Thunderstorm Mostly Cloudy
4:25 PM 75.0 °F - 69.1 °F 82% 30.04 in 4.0 mi WSW 16.1 mph 26.5 mph 0.06 in Thunderstorm Unknown
4:27 PM 73.9 °F - 69.1 °F 85% 30.06 in 0.5 mi NW 25.3 mph 40.3 mph 0.32 in Rain , Thunderstorm Thunderstorms and Rain
4:35 PM 69.1 °F - 64.0 °F 84% 30.04 in 0.2 mi ENE 6.9 mph 40.3 mph 0.62 in Rain , Thunderstorm Heavy Thunderstorms and Rain
4:37 PM 69.1 °F - 64.0 °F 84% 30.04 in 0.5 mi Variable 6.9 mph 32.2 mph 0.62 in Rain , Thunderstorm Light Thunderstorms and Rain
4:41 PM 69.1 °F - 64.9 °F 87% 30.04 in 2.5 mi North 6.9 mph - 0.62 in Rain , Thunderstorm Light Thunderstorms and Rain
4:48 PM 69.8 °F - 66.2 °F 88% 30.03 in 10.0 mi NE 4.6 mph - 0.62 in Thunderstorm Thunderstorm
4:53 PM 70.0 °F - 66.9 °F 90% 30.00 in 10.0 mi North 3.5 mph - 0.62 in Thunderstorm Thunderstorm
5:03 PM 72.0 °F - 66.0 °F 81% 30.02 in 10.0 mi Calm Calm - N/A Thunderstorm Scattered Clouds
5:17 PM 73.0 °F - 66.0 °F 79% 30.01 in 10.0 mi Calm Calm - N/A   Partly Cloudy
5:53 PM 73.0 °F - 66.0 °F 79% 29.98 in 10.0 mi West 9.2 mph - N/A   Clear
6:53 PM 70.0 °F - 66.0 °F 87% 30.00 in 5.0 mi Calm Calm - 0.04 in Rain Light Rain
7:53 PM 69.1 °F - 64.9 °F 87% 30.00 in 5.0 mi East 5.8 mph - 0.10 in Rain Rain
8:53 PM 66.9 °F - 64.9 °F 93% 29.99 in 10.0 mi ESE 5.8 mph - 0.07 in Rain Light Rain
10:53 PM 66.9 °F - 64.9 °F 93% 29.99 in 10.0 mi ESE 4.6 mph - 0.01 in   Mostly Cloudy
11:53 PM 66.9 °F - 64.9 °F 93% 29.97 in 10.0 mi SE 4.6 mph - N/A   Clear